Temperature
19 20 20 20 20 21 22 24 25 24 24 24 24 24 24 23 22 20 19 19 18 18 18 17 16 15 14 13 13 12 12 11 11 10 10 10 10 10 10 10 9 9 9 9 10 10 10 11 11
19 19 20 21 20 21 23 24 24 24 24 23 24 24 24 24 22 21 20 19 18 18 18 17 17 15 14 13 12 12 11 11 11 10 10 10 10 10 9 9 9 9 9 10 10 10 11 11 11
19 20 21 21 21 22 23 24 24 24 24 24 24 24 24 23 22 21 20 19 18 18 18 18 17 15 14 13 12 12 11 11 10 10 10 10 9 9 9 9 10 10 10 10 10 10 11 11 11
19 20 22 22 23 24 24 24 24 24 24 23 23 24 24 22 22 21 20 19 18 17 17 17 16 15 14 13 12 12 11 11 10 10 10 9 9 9 9 9 10 10 10 10 10 11 11 11 11
20 21 21 22 23 25 25 25 24 24 24 24 24 24 23 21 21 20 20 19 18 17 17 17 16 15 14 13 12 12 11 10 10 10 9 9 9 9 9 10 10 10 10 10 10 11 11 11 11
21 22 21 22 24 25 25 24 24 24 25 24 24 24 21 20 20 20 20 19 18 17 16 17 16 15 14 12 12 11 11 10 10 10 9 9 9 9 9 9 10 10 10 10 10 11 11 11 11
21 21 21 22 23 24 24 24 24 23 23 24 23 23 21 19 20 19 19 18 17 17 16 16 16 15 13 12 12 11 11 10 10 10 9 9 9 9 9 9 10 10 10 10 10 11 11 11 11
21 21 21 22 23 24 24 23 23 23 23 23 22 22 21 19 19 19 19 18 17 16 15 15 15 14 13 12 11 11 11 10 10 10 9 9 9 9 9 9 9 10 10 10 10 10 11 11 11
21 20 20 22 23 23 23 23 23 22 22 22 22 22 21 20 19 19 18 17 17 16 15 14 14 14 13 12 11 11 11 10 10 10 10 9 9 9 9 9 9 9 10 10 10 10 10 10 10
22 19 21 22 22 22 22 22 22 22 22 22 22 21 20 19 19 18 17 17 16 16 15 14 14 13 13 12 11 11 10 10 10 10 9 9 9 8 8 9 9 9 9 10 10 10 10 10 10
22 21 22 23 22 21 21 21 22 21 20 21 20 20 19 19 18 18 17 17 17 16 15 14 14 13 12 12 11 11 10 10 10 9 9 9 9 8 8 8 9 9 9 9 10 10 10 10 10
22 22 22 22 21 20 20 21 21 21 21 20 20 19 18 18 18 18 18 17 17 16 15 14 13 13 12 12 11 11 10 10 10 9 9 9 9 8 8 8 8 8 9 9 8 9 9 9 8
21 21 22 21 20 20 20 20 20 20 20 20 19 18 18 18 17 17 17 17 17 16 15 14 13 13 12 12 11 11 10 10 10 9 9 9 9 9 8 8 8 8 8 8 8 8 8 8 8
21 21 21 21 21 20 20 20 20 20 20 19 19 18 17 17 17 17 17 16 16 15 15 14 13 13 12 12 11 11 10 10 9 9 9 9 8 8 8 8 8 8 8 8 8 7 7 7 7
20 19 19 21 21 20 19 18 19 20 19 19 19 18 17 16 16 16 16 16 16 15 14 14 14 13 12 12 11 11 10 10 10 9 9 9 9 8 8 8 8 8 8 7 7 7 7 7 7
20 19 19 21 20 19 18 18 20 20 19 20 19 18 17 16 15 15 16 16 15 15 14 14 13 13 12 12 11 10 10 10 9 9 9 9 9 8 8 8 8 8 7 7 7 7 7 7 7
19 19 20 20 20 20 19 18 19 20 20 20 19 18 17 16 15 15 15 15 15 15 14 14 14 13 12 11 11 10 10 10 9 9 9 9 9 8 8 8 8 8 7 7 7 7 7 7 7
19 19 20 20 20 20 19 18 19 20 20 20 19 18 17 15 15 15 15 15 15 15 14 14 14 13 12 12 11 11 10 10 10 10 9 9 9 8 8 8 8 8 8 7 7 7 7 7 7
19 19 18 19 20 19 18 18 19 20 19 19 19 18 16 15 14 14 14 14 14 14 14 14 14 13 12 12 11 11 11 10 10 10 10 10 9 9 9 8 8 8 8 8 7 7 7 7 6
18 18 18 19 19 18 18 18 19 19 19 19 19 18 16 15 14 13 13 14 14 14 14 13 13 13 12 12 12 11 11 11 10 10 10 10 9 9 9 8 8 8 8 8 7 7 6 6 6
18 17 18 18 19 18 17 17 18 19 19 19 19 18 16 15 14 13 13 13 14 14 13 13 13 12 12 12 11 11 11 10 10 10 10 9 9 9 8 8 8 8 7 7 7 7 6 6 6
17 19 19 18 17 16 18 16 18 17 17 17 18 17 16 15 14 13 13 14 14 14 13 13 12 12 12 12 11 11 11 10 10 9 9 9 8 8 8 8 7 7 7 7 7 6 6 5 5
18 17 18 17 16 15 17 16 17 17 16 16 16 17 16 15 14 13 13 13 13 13 13 13 12 12 12 11 11 11 10 10 9 9 8 8 8 7 7 7 7 7 7 6 6 6 6 5 5
17 17 17 16 15 14 17 16 17 17 17 16 16 17 15 14 13 13 13 13 13 13 12 12 12 12 11 11 11 10 10 9 9 8 8 7 7 7 7 6 6 6 6 6 6 5 5 5 5
16 16 15 15 14 15 19 18 18 19 18 17 17 16 15 14 13 12 12 12 12 12 12 12 12 11 11 11 10 10 9 9 8 8 7 7 7 6 6 6 6 6 6 5 5 5 4 4 4
15 16 15 16 16 17 17 17 18 17 18 19 18 16 15 14 13 12 12 12 12 12 11 11 11 11 11 10 10 9 8 8 8 7 7 7 6 6 6 5 5 5 5 5 4 4 4 3 3
16 15 17 16 16 17 17 18 16 17 16 17 17 16 14 13 13 12 12 12 11 11 11 11 11 10 10 9 9 8 8 7 7 7 6 6 6 5 5 5 5 5 4 4 3 3 3 2 2
16 17 16 15 15 15 18 18 16 15 15 16 15 15 14 14 13 12 11 11 11 11 10 10 10 9 9 9 8 8 7 7 7 6 6 5 5 5 5 4 4 4 4 3 3 2 2 1 1
15 16 16 16 17 16 16 17 17 16 16 15 15 15 14 14 13 12 11 11 10 10 10 9 9 9 8 8 8 7 7 6 6 6 5 5 4 4 4 4 4 3 3 3 2 2 1 1 0
16 16 16 15 16 16 15 16 17 17 16 16 16 16 15 14 13 12 11 10 10 9 9 9 8 8 8 7 7 6 6 6 5 5 5 4 4 4 4 3 3 2 2 2 1 1 0 -0 -1
Wind_Speed
11 12 8 3 4 5 3 5 3 6 4 8 6 4 5 5 6 5 5 9 12 14 22 22 21 19 17 15 13 12 12 11 10 10 10 9 9 9 10 11 11 11 12 12 12 12 13 13 13
11 8 5 4 5 6 3 5 5 8 7 4 0 3 4 5 9 9 6 8 12 17 22 21 21 20 17 16 14 13 12 11 10 10 9 8 9 9 9 9 10 10 10 11 11 11 11 12 12
8 8 4 4 5 4 5 7 7 7 5 1 2 1 1 5 7 6 8 9 10 15 21 22 22 20 18 16 15 14 12 11 10 9 8 8 8 8 8 8 8 9 9 9 10 10 10 10 10
5 4 5 6 7 2 5 6 7 2 4 2 4 5 3 7 5 8 9 9 11 12 20 23 23 20 18 17 15 14 13 11 10 10 8 8 7 7 7 7 7 7 7 8 8 8 9 8 8
4 4 6 6 5 3 3 6 4 5 1 3 1 6 4 5 11 11 9 8 10 11 19 23 22 20 18 17 16 15 13 12 10 10 8 8 7 7 7 6 6 5 5 6 6 7 7 7 7
4 5 6 6 4 4 3 5 1 5 3 1 1 4 5 7 10 9 9 7 8 10 17 22 22 20 18 17 16 15 14 12 11 10 9 8 7 7 6 5 5 4 4 4 4 4 5 5 5
5 5 7 7 2 1 3 6 5 7 8 6 5 6 5 7 7 7 8 6 7 11 14 19 19 18 18 17 16 16 14 12 11 10 9 8 7 7 6 5 4 3 2 2 2 2 2 3 3
4 5 8 7 4 2 6 4 2 5 7 6 3 4 5 5 5 6 6 4 6 8 10 16 18 18 17 16 16 16 15 13 12 11 10 9 8 7 7 7 6 4 3 3 2 2 2 2 2
4 4 7 7 4 4 5 2 3 2 4 7 5 1 7 8 5 5 5 4 4 6 8 12 15 16 17 16 16 16 15 14 12 11 11 10 9 10 10 10 9 7 6 5 5 5 5 5 6
3 4 8 6 6 7 7 6 6 5 8 7 3 5 7 6 6 6 7 9 9 9 8 8 11 14 15 14 15 15 14 14 13 12 14 12 11 9 9 11 11 9 8 8 8 8 8 9 11
5 7 7 5 6 6 7 8 7 6 7 5 6 7 4 1 4 6 7 8 10 11 9 8 8 13 13 11 13 12 12 13 14 13 15 14 11 7 8 11 11 10 10 10 11 11 12 13 13
6 8 7 5 5 3 6 7 8 7 6 3 4 4 4 5 4 3 4 5 7 10 10 8 7 9 12 12 10 11 10 10 10 11 11 11 8 6 6 8 10 12 13 13 12 11 13 14 13
8 7 6 3 1 5 7 8 8 9 3 3 2 1 2 4 4 3 1 1 5 9 10 9 8 8 8 9 8 8 9 9 10 10 10 10 7 6 6 7 8 9 9 9 8 9 10 10 11
6 8 8 7 7 5 6 9 6 5 2 2 2 2 4 5 5 4 3 1 3 7 10 9 8 7 8 5 5 6 8 9 9 10 11 11 9 7 6 6 6 7 8 8 8 8 8 8 8
5 8 10 10 7 3 2 8 9 5 3 4 3 6 6 6 6 5 3 2 3 7 8 8 7 7 7 6 6 6 7 8 7 8 10 11 10 8 7 5 5 7 9 10 9 9 8 6 6
7 7 6 5 7 6 3 7 3 8 4 2 3 6 8 7 7 6 6 4 5 8 8 7 5 5 6 5 5 4 5 5 5 6 7 8 10 10 8 5 5 9 9 8 5 4 5 5 6
8 7 8 4 7 6 6 6 3 6 6 4 4 7 8 8 8 7 7 7 7 8 8 8 6 4 5 5 4 3 2 2 2 3 4 7 8 9 8 6 7 9 7 6 4 5 5 6 7
6 7 7 3 4 5 7 9 7 7 7 6 7 8 8 8 8 8 8 8 8 8 9 9 7 5 6 4 4 3 2 1 0 1 3 5 6 8 8 6 7 8 5 5 5 6 6 6 7
7 9 11 9 1 2 8 11 9 6 7 8 8 9 9 9 9 8 8 9 9 8 9 8 7 6 5 4 4 3 1 1 1 2 4 5 6 7 7 5 6 6 5 6 7 6 7 6 5
6 9 11 9 1 2 8 12 9 7 9 9 10 10 11 10 9 8 9 8 8 8 8 8 7 7 6 4 3 2 2 1 1 0 2 4 5 6 6 5 4 4 5 7 7 7 6 6 5
8 10 10 8 6 6 7 9 8 7 7 8 10 11 11 11 10 9 9 9 8 8 7 7 8 7 7 5 4 2 1 1 0 1 1 3 5 5 6 6 5 5 5 6 7 7 8 7 6
8 5 4 5 5 5 5 5 5 10 9 9 9 10 11 10 10 9 9 9 8 7 7 8 8 8 6 5 4 2 1 1 0 0 1 3 5 5 5 6 6 5 4 6 7 7 6 7 7
3 3 2 5 6 7 7 7 6 12 12 12 11 11 11 11 10 10 9 9 9 7 6 7 8 7 5 4 4 2 2 1 1 2 2 3 3 4 5 6 6 5 5 7 8 8 7 6 7
3 1 5 5 4 6 10 10 5 11 15 16 13 12 12 11 11 10 9 9 8 6 6 6 7 6 5 4 3 3 2 2 3 3 3 3 3 3 5 6 5 6 5 7 7 8 9 8 9
4 4 4 5 5 7 3 5 5 6 11 15 16 15 13 12 11 10 10 9 8 8 6 6 7 5 4 4 3 2 1 1 2 3 3 4 4 4 5 4 4 5 6 7 7 8 9 9 9
9 7 5 4 3 0 1 5 1 6 5 8 14 16 14 12 11 10 10 9 9 8 7 6 6 5 4 3 2 1 2 1 2 3 4 4 4 4 5 5 6 7 8 8 7 7 9 8 9
7 8 5 4 7 5 6 6 4 4 4 5 11 14 14 12 11 11 10 9 9 8 6 6 5 4 3 2 1 1 1 2 3 4 4 4 5 5 5 6 7 7 8 8 8 7 9 9 9
5 3 4 4 4 5 7 7 7 8 8 8 10 12 12 12 11 10 9 9 8 7 6 5 4 3 2 1 1 1 2 3 3 4 6 6 6 6 7 8 8 8 8 8 9 8 9 9 9
7 4 5 4 5 3 4 2 3 9 11 11 10 11 12 12 11 10 9 8 8 7 6 4 3 2 2 0 1 2 3 3 4 5 6 6 6 7 7 8 9 9 9 9 9 9 10 10 10
8 9 8 5 5 5 3 3 3 6 7 9 10 10 11 11 10 9 9 8 7 7 6 5 3 2 2 1 1 3 4 4 5 6 6 6 7 7 8 9 9 10 10 9 10 10 10 10 11
Wind_Direction
278 257 245 252 250 239 238 85 61 66 58 56 44 342 335 39 41 89 150 135 127 137 150 161 158 157 157 153 149 145 137 127 119 112 106 99 96 89 83 77 73 69 66 65 64 63 62 61 62
284 259 248 243 251 249 150 112 87 59 60 51 344 274 303 77 90 113 134 124 130 140 149 161 161 160 160 157 153 149 143 136 129 121 114 108 101 96 88 80 74 71 67 65 64 63 63 60 60
273 265 249 232 249 290 80 83 70 76 81 352 282 210 354 53 75 93 120 134 133 140 151 160 161 163 162 161 158 154 149 145 139 131 126 120 109 101 94 86 78 73 69 65 62 61 61 60 58
260 236 245 251 258 46 44 77 64 28 123 154 316 307 104 67 70 104 127 148 141 141 150 156 163 165 165 165 162 158 155 152 148 142 140 134 124 113 103 95 87 78 72 66 62 59 57 57 56
239 249 240 254 268 86 71 58 50 303 225 149 93 312 44 79 97 113 133 154 149 145 147 155 165 168 169 168 166 162 160 159 157 152 150 146 137 127 117 110 101 90 79 70 62 56 54 50 50
254 257 259 249 216 119 106 85 28 285 317 26 132 302 82 104 96 107 126 164 152 140 143 155 166 170 172 173 170 167 166 166 166 162 160 157 151 143 138 134 125 114 97 80 65 54 48 43 39
277 278 283 296 328 91 81 60 355 344 339 357 23 334 93 75 89 115 132 167 142 137 140 151 166 172 175 176 174 172 172 172 174 171 169 168 165 162 160 158 157 153 144 123 87 51 32 23 15
310 303 282 283 295 350 76 74 355 336 323 344 6 309 83 114 112 109 116 136 132 136 143 151 165 172 176 177 177 175 176 177 178 177 173 172 174 179 180 181 187 188 194 206 220 242 270 290 296
290 282 285 299 336 356 61 41 334 354 275 276 254 272 115 127 127 134 134 148 149 151 155 154 165 171 174 176 179 176 177 180 180 177 172 172 184 192 196 198 193 200 212 227 238 244 253 259 260
229 268 280 327 0 357 1 355 333 314 298 295 329 71 111 136 162 182 190 182 176 176 175 165 164 167 171 175 171 176 178 180 183 185 178 185 204 203 190 185 186 204 220 234 243 248 253 256 251
254 260 291 331 19 10 335 314 305 291 288 342 6 2 8 297 226 214 217 202 180 173 172 174 165 160 163 161 162 172 176 179 190 196 184 190 201 190 163 167 183 204 218 230 238 234 237 240 240
273 286 297 327 51 356 301 303 307 291 288 24 37 359 321 300 285 250 228 214 167 158 163 173 161 151 158 159 163 166 171 176 185 194 189 185 187 193 192 192 194 204 210 217 223 217 231 236 237
266 275 291 302 244 248 269 274 271 271 294 43 43 320 339 355 347 340 332 219 154 149 156 166 161 150 152 155 165 171 172 174 180 183 194 196 186 192 212 210 214 219 222 218 219 228 243 247 245
326 323 299 272 249 246 259 269 252 250 143 187 193 92 51 33 19 11 14 188 156 143 148 156 163 154 151 154 159 170 180 179 182 182 196 208 207 204 213 220 224 229 235 241 237 239 247 249 247
298 282 273 244 214 190 262 271 229 189 162 222 171 115 91 64 51 40 39 59 128 129 133 144 157 154 150 160 171 170 176 178 181 188 201 211 216 223 224 225 233 236 242 244 244 249 259 262 260
245 254 258 185 172 143 193 279 127 135 174 210 127 110 101 81 66 54 54 66 90 104 113 121 130 146 148 151 160 167 180 179 177 191 207 219 224 227 231 232 238 246 250 248 239 236 252 259 258
236 248 258 173 176 168 214 271 181 162 187 195 154 118 106 90 74 66 66 74 86 99 104 110 118 138 135 133 137 133 126 120 149 199 222 232 236 237 237 239 246 255 255 249 244 244 240 255 262
304 308 307 302 165 203 244 264 248 202 195 189 155 126 108 94 85 79 76 74 81 93 104 109 111 115 114 107 107 95 84 55 53 259 258 259 255 253 249 247 252 260 260 256 250 253 251 250 257
317 309 302 299 269 222 256 262 250 201 187 185 158 134 119 111 105 98 94 91 89 91 100 107 111 109 107 103 110 118 143 178 198 232 254 268 269 266 258 251 251 252 253 255 253 256 262 263 262
289 283 282 286 148 214 268 270 253 205 196 177 158 141 132 123 114 107 101 94 93 95 100 105 107 102 94 96 101 100 101 96 108 290 275 283 282 274 268 258 252 249 252 259 260 257 261 264 250
256 256 270 292 318 257 257 274 230 177 160 149 147 138 135 136 130 119 108 99 91 87 91 99 99 96 95 98 95 86 81 336 293 246 237 255 268 269 266 265 264 264 258 259 259 254 253 260 256
262 279 283 298 300 284 225 277 197 166 162 165 159 145 140 131 125 121 114 105 99 95 95 99 99 98 99 103 98 101 95 58 337 320 269 270 266 260 259 261 265 264 262 264 263 259 252 253 260
242 58 308 273 268 278 257 251 240 163 180 182 176 158 145 136 129 123 119 116 111 109 107 107 104 103 104 102 105 89 64 25 347 330 307 306 294 274 261 254 253 256 258 262 264 266 260 252 251
110 220 250 243 247 259 232 213 248 182 191 182 176 159 147 138 133 128 126 122 120 118 113 114 113 110 107 100 92 82 64 13 348 334 329 318 306 295 284 276 262 260 257 260 261 260 259 256 255
180 212 248 216 215 242 222 197 256 171 174 177 171 159 150 144 143 145 146 141 139 137 135 127 119 116 108 96 84 77 61 355 320 320 318 313 305 300 295 300 290 282 274 270 265 265 262 259 258
195 215 237 272 263 318 202 231 235 76 84 152 158 153 150 153 154 157 156 148 146 146 143 130 123 121 112 103 83 61 35 343 307 311 306 298 291 290 297 302 293 286 284 282 274 272 266 264 259
197 213 250 307 298 278 242 188 116 101 85 122 145 148 155 159 157 158 154 152 151 149 143 135 131 125 120 113 82 41 345 314 307 304 297 290 289 292 297 296 291 286 284 280 278 274 271 269 265
288 264 173 199 247 261 257 209 186 173 179 174 162 159 159 158 158 159 158 155 150 145 140 137 135 137 136 111 67 328 306 307 304 300 296 294 295 297 298 295 292 289 286 284 283 281 277 276 273
193 231 226 231 262 272 293 346 34 157 169 175 175 166 163 162 162 160 157 151 144 142 148 149 146 146 145 158 296 300 299 302 299 294 292 296 298 300 297 294 293 292 291 289 286 284 285 284 284
198 205 205 216 240 224 262 289 47 98 135 156 162 159 158 158 159 156 153 149 151 157 161 162 167 172 180 216 287 291 292 293 293 293 297 300 299 296 294 293 292 291 292 290 290 291 292 291 291
Height
1529 1531 1533 1535 1536 1536 1531 1525 1522 1525 1526 1530 1532 1533 1532 1532 1537 1545 1543 1542 1541 1541 1541 1543 1544 1546 1548 1549 1551 1552 1553 1554 1555 1556 1556 1557 1557 1557 1557 1557 1557 1557 1556 1556 1556 1555 1555 1555 1555
1529 1532 1536 1535 1536 1539 1530 1523 1524 1527 1529 1532 1532 1532 1531 1532 1535 1539 1540 1541 1541 1541 1541 1543 1544 1546 1547 1549 1551 1552 1554 1554 1555 1556 1557 1557 1558 1558 1558 1558 1557 1557 1557 1557 1556 1556 1556 1556 1556
1530 1533 1535 1532 1532 1532 1528 1523 1525 1527 1530 1532 1531 1531 1532 1533 1536 1538 1540 1540 1541 1540 1541 1542 1544 1546 1547 1549 1551 1552 1554 1555 1556 1557 1557 1558 1558 1558 1558 1558 1558 1558 1557 1557 1557 1557 1556 1556 1556
1533 1535 1533 1531 1528 1522 1522 1523 1525 1528 1530 1532 1532 1530 1531 1533 1535 1537 1538 1539 1540 1540 1541 1542 1544 1545 1547 1549 1551 1552 1554 1555 1556 1557 1557 1558 1559 1559 1559 1558 1558 1558 1558 1558 1558 1557 1557 1557 1557
1534 1534 1532 1531 1525 1520 1521 1524 1527 1528 1528 1529 1531 1531 1532 1533 1534 1535 1537 1539 1540 1540 1540 1541 1543 1545 1547 1549 1551 1552 1554 1555 1556 1557 1558 1559 1559 1559 1559 1559 1559 1558 1559 1559 1558 1558 1558 1558 1558
1535 1530 1534 1532 1523 1519 1521 1524 1528 1528 1528 1528 1530 1531 1533 1534 1533 1535 1536 1538 1540 1540 1540 1541 1543 1544 1546 1548 1550 1552 1554 1555 1556 1557 1558 1559 1559 1559 1559 1559 1559 1559 1559 1559 1559 1559 1559 1558 1558
1535 1532 1532 1527 1524 1522 1522 1525 1528 1529 1529 1530 1530 1531 1533 1534 1533 1535 1536 1537 1539 1539 1539 1540 1542 1544 1546 1548 1550 1552 1553 1555 1556 1557 1558 1559 1559 1559 1559 1559 1559 1559 1559 1559 1559 1559 1559 1559 1559
1533 1532 1531 1527 1526 1524 1524 1527 1530 1531 1531 1531 1531 1532 1532 1534 1533 1534 1535 1536 1537 1538 1538 1538 1540 1542 1544 1547 1549 1551 1553 1554 1555 1557 1557 1558 1559 1559 1559 1559 1559 1559 1559 1559 1559 1559 1559 1558 1558
1534 1537 1536 1529 1526 1525 1525 1527 1529 1530 1531 1531 1530 1531 1531 1531 1532 1532 1532 1534 1535 1536 1537 1537 1539 1541 1543 1545 1548 1550 1552 1553 1555 1556 1557 1557 1558 1558 1558 1559 1559 1559 1559 1559 1558 1558 1558 1558 1558
1533 1538 1533 1526 1526 1526 1527 1528 1530 1530 1529 1528 1528 1529 1529 1529 1530 1530 1530 1531 1532 1534 1535 1537 1538 1539 1542 1544 1546 1549 1550 1552 1553 1555 1555 1556 1557 1558 1558 1558 1558 1558 1558 1558 1558 1557 1557 1557 1556
1530 1531 1528 1526 1527 1528 1529 1530 1529 1529 1529 1528 1528 1528 1528 1528 1528 1528 1528 1529 1529 1531 1533 1536 1538 1539 1541 1543 1545 1547 1549 1550 1552 1553 1554 1555 1556 1557 1557 1557 1557 1557 1557 1556 1556 1556 1555 1555 1554
1529 1528 1527 1527 1528 1529 1530 1529 1529 1528 1528 1527 1526 1526 1526 1526 1525 1525 1526 1527 1528 1528 1530 1534 1537 1538 1540 1542 1544 1546 1547 1549 1550 1552 1553 1554 1555 1555 1556 1556 1555 1555 1555 1554 1554 1553 1553 1553 1552
1528 1527 1526 1526 1527 1528 1529 1528 1527 1525 1525 1525 1525 1525 1524 1523 1523 1522 1523 1524 1526 1526 1528 1531 1534 1536 1538 1540 1542 1544 1546 1547 1549 1550 1551 1552 1553 1553 1554 1554 1554 1554 1554 1553 1553 1552 1551 1551 1550
1527 1526 1525 1525 1525 1526 1526 1525 1524 1522 1523 1523 1524 1523 1523 1522 1521 1520 1520 1521 1523 1525 1526 1529 1532 1535 1537 1539 1541 1543 1544 1546 1547 1548 1549 1550 1551 1551 1552 1552 1552 1552 1552 1551 1550 1549 1549 1548 1547
1528 1527 1524 1520 1521 1523 1525 1524 1519 1520 1521 1522 1522 1522 1522 1521 1520 1518 1518 1519 1521 1523 1525 1527 1530 1533 1535 1537 1540 1542 1543 1544 1545 1546 1547 1548 1549 1549 1549 1549 1549 1549 1549 1548 1547 1546 1545 1544 1543
1526 1527 1526 1517 1518 1521 1527 1527 1516 1517 1519 1520 1521 1521 1521 1521 1520 1518 1518 1518 1520 1522 1524 1526 1528 1531 1534 1536 1538 1540 1541 1543 1544 1544 1545 1545 1546 1546 1546 1546 1546 1546 1545 1544 1543 1542 1540 1539 1538
1525 1528 1523 1518 1516 1518 1522 1523 1517 1516 1518 1519 1520 1521 1521 1521 1520 1519 1518 1519 1520 1521 1523 1525 1527 1530 1533 1535 1536 1538 1539 1540 1541 1542 1542 1542 1543 1543 1543 1542 1542 1542 1541 1540 1539 1537 1536 1534 1532
1527 1525 1520 1518 1516 1517 1520 1519 1515 1514 1515 1516 1518 1520 1521 1521 1521 1520 1519 1519 1520 1521 1523 1524 1527 1529 1531 1533 1535 1536 1537 1538 1539 1539 1539 1539 1539 1539 1539 1538 1537 1537 1536 1535 1534 1533 1531 1529 1527
1522 1525 1525 1519 1515 1516 1518 1515 1510 1509 1511 1513 1516 1518 1520 1521 1521 1521 1520 1520 1521 1522 1523 1525 1526 1529 1530 1532 1533 1535 1536 1536 1537 1537 1537 1536 1536 1536 1535 1534 1533 1533 1531 1530 1529 1528 1526 1524 1523
1522 1527 1525 1518 1513 1515 1515 1512 1505 1505 1507 1509 1513 1516 1519 1521 1521 1522 1521 1521 1522 1523 1524 1525 1527 1529 1530 1531 1533 1534 1535 1535 1535 1535 1535 1534 1533 1532 1531 1530 1529 1528 1527 1526 1525 1523 1521 1519 1519
1523 1525 1523 1520 1515 1513 1515 1513 1502 1501 1504 1507 1511 1514 1517 1520 1521 1521 1522 1522 1523 1524 1525 1526 1528 1529 1530 1531 1532 1533 1533 1534 1533 1533 1532 1531 1530 1529 1528 1527 1526 1524 1523 1521 1520 1519 1516 1514 1513
1523 1515 1516 1518 1523 1521 1514 1522 1504 1502 1504 1506 1509 1513 1516 1518 1520 1521 1521 1522 1523 1524 1526 1527 1528 1529 1530 1531 1531 1532 1532 1532 1531 1531 1529 1528 1527 1526 1525 1523 1522 1520 1519 1517 1515 1514 1512 1509 1506
1515 1516 1517 1518 1522 1525 1515 1520 1504 1499 1504 1505 1507 1510 1514 1516 1518 1520 1521 1522 1523 1525 1526 1527 1528 1529 1529 1530 1530 1530 1530 1530 1529 1528 1527 1525 1524 1523 1521 1519 1518 1516 1514 1512 1510 1508 1506 1504 1501
1514 1516 1518 1519 1524 1530 1509 1514 1504 1496 1495 1498 1503 1507 1511 1514 1517 1519 1520 1521 1523 1524 1526 1527 1528 1528 1529 1529 1529 1528 1528 1527 1526 1525 1523 1522 1521 1519 1518 1516 1514 1511 1509 1507 1504 1502 1499 1497 1494
1516 1522 1529 1530 1534 1523 1494 1500 1496 1483 1483 1489 1496 1502 1507 1512 1515 1517 1519 1520 1522 1523 1525 1526 1527 1527 1527 1527 1527 1526 1525 1524 1523 1521 1520 1518 1516 1515 1513 1511 1508 1506 1503 1501 1498 1495 1492 1490 1487
1515 1516 1525 1525 1519 1507 1504 1502 1490 1482 1482 1486 1492 1498 1504 1509 1513 1515 1517 1519 1521 1522 1523 1524 1525 1525 1525 1525 1524 1524 1522 1521 1520 1518 1516 1514 1512 1510 1508 1505 1503 1500 1497 1494 1491 1488 1485 1482 1479
1508 1512 1506 1514 1511 1511 1500 1490 1491 1485 1486 1487 1491 1496 1501 1506 1510 1513 1516 1517 1519 1521 1522 1523 1523 1523 1523 1522 1522 1521 1519 1518 1516 1514 1512 1510 1507 1505 1502 1499 1496 1493 1490 1487 1484 1480 1477 1475 1472
1504 1501 1509 1516 1519 1517 1496 1489 1491 1491 1489 1489 1492 1495 1500 1504 1508 1511 1514 1516 1517 1518 1520 1520 1521 1521 1520 1520 1519 1517 1516 1514 1512 1510 1507 1505 1502 1499 1496 1493 1490 1486 1483 1480 1476 1473 1470 1467 1464
1504 1504 1503 1504 1503 1513 1510 1496 1481 1482 1483 1487 1489 1493 1497 1502 1505 1509 1511 1513 1515 1516 1517 1518 1518 1518 1517 1516 1515 1514 1512 1510 1508 1505 1502 1500 1497 1494 1490 1487 1483 1480 1476 1473 1469 1465 1462 1459 1455
1494 1496 1500 1508 1504 1501 1507 1500 1480 1479 1480 1484 1488 1492 1496 1500 1504 1507 1509 1511 1512 1514 1514 1515 1515 1515 1514 1513 1511 1509 1508 1505 1503 1500 1497 1494 1491 1488 1484 1480 1476 1473 1469 1465 1462 1458 1454 1451 1447